Time,TemperatureF,DewpointF,PressureIn,WindDirection,WindDirectionDegrees,WindSpeedMPH,WindSpeedGustMPH,Humidity,HourlyPrecipIn,Conditions,Clouds,dailyrainin,SolarRadiationWatts/m^2,SoftwareType,DateUTC
2013-05-10 00:00:00,41.0,40.0,-100.00,NE,45,9.0,-999.0,93,0.07,,,-99.99,0.000000,,2013-05-10 04:00:00,
2013-05-10 00:43:00,41.0,40.0,-100.00,NE,45,9.0,-999.0,93,0.07,,,-99.99,0.000000,,2013-05-10 04:43:00,
2013-05-10 00:53:00,41.0,40.0,-100.00,NE,45,9.0,-999.0,93,0.07,,,-99.99,0.000000,,2013-05-10 04:53:00,
2013-05-10 01:00:00,40.0,39.0,-100.00,NE,45,9.0,-999.0,95,0.04,,,-99.99,0.000000,,2013-05-10 05:00:00,
2013-05-10 01:42:00,40.0,39.0,-100.00,NE,45,9.0,-999.0,95,0.04,,,-99.99,0.000000,,2013-05-10 05:42:00,
2013-05-10 01:52:00,40.0,39.0,-100.00,NE,45,9.0,-999.0,95,0.04,,,-99.99,0.000000,,2013-05-10 05:52:00,
2013-05-10 02:00:00,40.0,40.0,-100.00,NE,45,7.0,-999.0,96,0.09,,,-99.99,0.000000,,2013-05-10 06:00:00,
2013-05-10 02:42:00,40.0,40.0,-100.00,NE,45,7.0,-999.0,96,0.09,,,-99.99,0.000000,,2013-05-10 06:42:00,
2013-05-10 02:52:00,40.0,40.0,-100.00,NE,45,7.0,-999.0,96,0.09,,,-99.99,0.000000,,2013-05-10 06:52:00,
2013-05-10 04:00:00,40.0,40.0,-100.00,ENE,67,6.0,-999.0,98,0.12,,,-99.99,0.000000,,2013-05-10 08:00:00,
2013-05-10 04:42:00,40.0,40.0,-100.00,ENE,67,6.0,-999.0,98,0.12,,,-99.99,0.000000,,2013-05-10 08:42:00,
2013-05-10 04:52:00,40.0,40.0,-100.00,ENE,67,6.0,-999.0,98,0.12,,,-99.99,0.000000,,2013-05-10 08:52:00,
2013-05-10 05:00:00,40.0,39.0,-100.00,East,90,6.0,-999.0,98,0.06,,,-99.99,0.000000,,2013-05-10 09:00:00,
2013-05-10 05:43:00,40.0,39.0,-100.00,East,90,6.0,-999.0,98,0.06,,,-99.99,0.000000,,2013-05-10 09:43:00,
2013-05-10 05:53:00,40.0,39.0,-100.00,East,90,6.0,-999.0,98,0.06,,,-99.99,0.000000,,2013-05-10 09:53:00,
2013-05-10 06:00:00,39.0,39.0,-100.00,East,90,6.0,-999.0,98,0.02,,,-99.99,0.000000,,2013-05-10 10:00:00,
2013-05-10 06:42:00,39.0,39.0,-100.00,East,90,6.0,-999.0,98,0.02,,,-99.99,0.000000,,2013-05-10 10:42:00,
2013-05-10 06:53:00,39.0,39.0,-100.00,East,90,6.0,-999.0,98,0.02,,,-99.99,0.000000,,2013-05-10 10:53:00,
2013-05-10 07:00:00,38.0,38.0,-100.00,East,90,5.0,-999.0,97,0.08,,,-99.99,1.160000,,2013-05-10 11:00:00,
2013-05-10 07:42:00,38.0,38.0,-100.00,East,90,5.0,-999.0,97,0.08,,,-99.99,1.160000,,2013-05-10 11:42:00,
2013-05-10 07:52:00,38.0,38.0,-100.00,East,90,5.0,-999.0,97,0.08,,,-99.99,1.160000,,2013-05-10 11:52:00,
2013-05-10 08:00:00,37.0,37.0,-100.00,ENE,67,5.0,-999.0,97,0.04,,,-99.99,24.360001,,2013-05-10 12:00:00,
2013-05-10 08:42:00,37.0,37.0,-100.00,ENE,67,5.0,-999.0,97,0.04,,,-99.99,24.360001,,2013-05-10 12:42:00,
2013-05-10 08:52:00,37.0,37.0,-100.00,ENE,67,5.0,-999.0,97,0.04,,,-99.99,24.360001,,2013-05-10 12:52:00,
2013-05-10 09:00:00,37.0,37.0,-100.00,ENE,67,4.0,-999.0,97,0.03,,,-99.99,46.400002,,2013-05-10 13:00:00,
2013-05-10 09:42:00,37.0,37.0,-100.00,ENE,67,4.0,-999.0,97,0.03,,,-99.99,46.400002,,2013-05-10 13:42:00,
2013-05-10 09:52:00,37.0,37.0,-100.00,ENE,67,4.0,-999.0,97,0.03,,,-99.99,46.400002,,2013-05-10 13:52:00,
2013-05-10 10:00:00,37.0,37.0,-100.00,NE,45,6.0,-999.0,97,0.04,,,-99.99,84.680000,,2013-05-10 14:00:00,
2013-05-10 10:42:00,37.0,37.0,-100.00,NE,45,6.0,-999.0,97,0.04,,,-99.99,84.680000,,2013-05-10 14:42:00,
2013-05-10 10:52:00,37.0,37.0,-100.00,NE,45,6.0,-999.0,97,0.04,,,-99.99,84.680000,,2013-05-10 14:52:00,
2013-05-10 12:00:00,38.0,37.0,-100.00,ENE,67,6.0,-999.0,96,-99.99,,,-99.99,140.360001,,2013-05-10 16:00:00,
2013-05-10 12:43:00,38.0,37.0,-100.00,ENE,67,6.0,-999.0,96,-99.99,,,-99.99,140.360001,,2013-05-10 16:43:00,
2013-05-10 12:53:00,38.0,37.0,-100.00,ENE,67,6.0,-999.0,96,-99.99,,,-99.99,140.360001,,2013-05-10 16:53:00,
2013-05-10 13:00:00,-999.0,-99.9,-100.00,NE,45,7.0,-999.0,96,0.01,,,-99.99,,,2013-05-10 17:00:00,
2013-05-10 13:42:00,39.0,38.0,-100.00,NE,45,7.0,-999.0,96,0.01,,,-99.99,256.359985,,2013-05-10 17:42:00,
2013-05-10 13:52:00,39.0,38.0,-100.00,NE,45,7.0,-999.0,96,0.01,,,-99.99,256.359985,,2013-05-10 17:52:00,
2013-05-10 14:00:00,38.0,37.0,-100.00,NE,45,9.0,-999.0,95,-99.99,,,-99.99,273.760010,,2013-05-10 18:00:00,
2013-05-10 14:43:00,38.0,37.0,-100.00,NE,45,9.0,-999.0,95,-99.99,,,-99.99,273.760010,,2013-05-10 18:43:00,
2013-05-10 14:54:00,38.0,37.0,-100.00,NE,45,9.0,-999.0,95,-99.99,,,-99.99,273.760010,,2013-05-10 18:54:00,
2013-05-10 15:00:00,38.0,36.0,-100.00,NE,45,11.0,-999.0,94,-99.99,,,-99.99,305.079987,,2013-05-10 19:00:00,
2013-05-10 15:42:00,38.0,36.0,-100.00,NE,45,11.0,-999.0,94,-99.99,,,-99.99,305.079987,,2013-05-10 19:42:00,
2013-05-10 15:52:00,38.0,36.0,-100.00,NE,45,11.0,-999.0,94,-99.99,,,-99.99,305.079987,,2013-05-10 19:52:00,
2013-05-10 16:00:00,39.0,36.0,-100.00,NE,45,10.0,-999.0,91,-99.99,,,-99.99,323.640015,,2013-05-10 20:00:00,
2013-05-10 16:42:00,39.0,36.0,-100.00,NE,45,10.0,-999.0,91,-99.99,,,-99.99,323.640015,,2013-05-10 20:42:00,
2013-05-10 16:52:00,39.0,36.0,-100.00,NE,45,10.0,-999.0,91,-99.99,,,-99.99,323.640015,,2013-05-10 20:52:00,
2013-05-10 18:00:00,40.0,36.0,-100.00,NE,45,8.0,-999.0,86,-99.99,,,-99.99,153.119995,,2013-05-10 22:00:00,
2013-05-10 18:42:00,40.0,36.0,-100.00,NE,45,8.0,-999.0,86,-99.99,,,-99.99,153.119995,,2013-05-10 22:42:00,
2013-05-10 18:53:00,40.0,36.0,-100.00,NE,45,8.0,-999.0,86,-99.99,,,-99.99,153.119995,,2013-05-10 22:53:00,
2013-05-10 19:00:00,40.0,36.0,-100.00,NE,45,7.0,-999.0,85,-99.99,,,-99.99,62.639999,,2013-05-10 23:00:00,
2013-05-10 19:42:00,40.0,36.0,-100.00,NE,45,7.0,-999.0,85,-99.99,,,-99.99,62.639999,,2013-05-10 23:42:00,
2013-05-10 19:52:00,40.0,36.0,-100.00,NE,45,7.0,-999.0,85,-99.99,,,-99.99,62.639999,,2013-05-10 23:52:00,
2013-05-10 21:00:00,40.0,36.0,-100.00,East,90,3.0,-999.0,84,-99.99,,,-99.99,11.600000,,2013-05-11 01:00:00,
2013-05-10 21:42:00,40.0,36.0,-100.00,East,90,3.0,-999.0,84,-99.99,,,-99.99,11.600000,,2013-05-11 01:42:00,
2013-05-10 21:52:00,40.0,36.0,-100.00,East,90,3.0,-999.0,84,-99.99,,,-99.99,11.600000,,2013-05-11 01:52:00,
2013-05-10 22:00:00,40.0,37.0,-100.00,ESE,112,5.0,-999.0,86,-99.99,,,-99.99,0.000000,,2013-05-11 02:00:00,
2013-05-10 22:42:00,40.0,37.0,-100.00,ESE,112,5.0,-999.0,86,-99.99,,,-99.99,0.000000,,2013-05-11 02:42:00,
2013-05-10 22:52:00,40.0,37.0,-100.00,ESE,112,5.0,-999.0,86,-99.99,,,-99.99,0.000000,,2013-05-11 02:52:00,
2013-05-10 23:00:00,41.0,37.0,-100.00,ESE,112,2.0,-999.0,85,-99.99,,,-99.99,0.000000,,2013-05-11 03:00:00,
2013-05-10 23:43:00,41.0,37.0,-100.00,ESE,112,2.0,-999.0,85,-99.99,,,-99.99,0.000000,,2013-05-11 03:43:00,
2013-05-10 23:53:00,41.0,37.0,-100.00,ESE,112,2.0,-999.0,85,-99.99,,,-99.99,0.000000,,2013-05-11 03:53:00,